{"data":{"norad_id":54009,"intl_designator":"2022-125AX","name":"STARLINK-5099","alt_names":[],"object_type":"PAYLOAD","status":"ACTIVE","operator":null,"country":"US","launch_date":"2022-10-05","launch_site_code":"AFWTR","launch_vehicle":null,"mission":null,"orbit_class":"UNKNOWN","rcs_meters":null,"size_class":null,"mass_kg":null,"dimensions":null,"purposes":["comms"],"wikipedia_slug":null,"has_3d_model":false,"image_url":null,"decayed_at":null,"tle_current":{"epoch":"2026-05-24T23:14:34.818720Z","epoch_age_seconds":73733,"freshness":"FRESH","line1":"1 54009U 22125AX  26144.96845855  .00000091  00000+0  23818-4 0  9992","line2":"2 54009  53.2159 231.2943 0001134  92.2928 267.8194 15.08839125200988","mean_motion":15.08839125,"eccentricity":0.0001134,"inclination_deg":53.2159,"raan_deg":231.2943,"arg_perigee_deg":92.2928,"mean_anomaly_deg":267.8194,"bstar":2.3818e-5,"rev_number":20098,"period_min":95.437610023534,"perigee_km":538.96157555095,"apogee_km":540.53055142975,"semimajor_km":6917.8830634903,"source":"CELESTRAK","updated_at":"2026-05-25T13:38:17.625898Z"}}}